Theta_e
311 312 312 312 313 315 315 315 314 314 314 313 312 308 306 304 302 302 305 309 311 313 315 316 317 319 320 320 320 320 320 322 325 326 326 325 323 322 322 321 319 317 315 313 315 316 319 323 325 329 329 326 327 327 328 328 328 328 331 332 332 333 332 332 333 332 330 325 323 324 324 324 324 323 323 322 321 323 323 322 324 324 323 322 322 321 322 323
310 311 312 312 312 314 315 315 315 314 314 313 313 311 307 305 304 302 302 306 309 312 314 315 316 318 319 320 320 320 320 321 323 325 326 326 324 323 322 320 319 318 315 314 314 317 323 327 327 328 329 328 327 327 328 328 328 328 331 333 332 332 332 332 331 330 329 326 323 324 324 324 324 324 323 322 322 322 323 323 323 325 324 322 321 320 320 320
309 310 311 311 311 312 314 315 315 314 314 314 313 312 309 306 305 304 302 302 305 310 312 314 315 317 319 320 320 320 320 321 322 323 324 325 325 324 323 321 320 318 316 314 314 319 326 327 326 328 329 329 328 327 328 328 328 328 330 333 333 332 331 330 330 329 327 326 325 323 323 323 324 325 324 323 323 322 323 323 323 325 326 324 322 320 320 320
308 309 310 310 311 311 312 314 315 314 314 314 314 313 312 308 305 305 303 301 302 306 310 312 314 316 317 319 320 320 321 322 322 323 322 323 324 324 324 322 321 319 316 314 316 324 330 330 328 328 329 330 329 328 328 328 329 329 329 331 331 331 331 331 330 328 326 326 326 324 324 324 323 324 324 324 324 324 323 324 323 324 325 324 324 322 320 321
307 308 309 310 310 311 311 313 315 315 314 315 314 313 313 310 306 305 304 302 300 302 307 311 313 314 316 318 319 320 322 323 323 323 322 322 323 323 324 323 322 320 316 314 317 325 331 332 330 328 329 329 330 329 328 328 329 329 329 329 330 330 331 331 329 327 326 326 327 326 326 324 324 324 324 323 324 324 323 324 324 324 327 326 325 324 322 321
307 307 308 309 310 311 311 312 314 314 314 314 314 314 313 312 308 304 304 302 300 300 303 308 311 313 315 316 318 320 322 323 323 324 324 323 323 323 323 323 323 321 317 314 319 326 329 330 328 327 328 328 330 330 328 328 328 329 329 329 330 330 330 331 328 328 327 328 328 327 325 324 325 326 325 324 324 324 324 324 323 324 327 329 327 326 324 323
307 307 307 308 309 310 310 311 312 313 314 314 314 314 314 313 310 306 304 302 300 299 300 304 309 312 314 315 317 319 321 322 323 323 323 322 322 322 323 323 323 322 317 314 322 328 328 327 325 325 327 327 329 330 330 329 328 329 329 329 329 329 329 330 328 327 328 328 328 325 324 325 326 327 326 325 325 325 325 325 324 323 324 327 327 324 322 323
307 307 307 307 308 309 310 310 311 313 314 314 314 314 314 313 311 307 305 302 300 299 298 301 306 311 314 315 316 318 319 321 322 322 322 322 322 321 323 323 324 323 318 314 322 327 326 326 323 323 325 326 327 328 330 330 329 329 329 329 329 329 330 329 328 327 328 327 327 326 326 327 328 327 325 325 325 326 326 325 324 324 323 323 324 323 321 322
306 307 307 307 307 308 309 309 311 312 313 314 314 314 314 313 312 309 306 303 301 300 299 299 303 309 314 315 316 318 318 319 321 323 323 324 323 322 322 323 323 323 319 314 321 325 325 325 323 322 323 324 326 326 328 330 330 329 328 329 328 329 329 329 329 327 328 327 327 327 328 328 329 328 327 327 327 328 328 328 325 325 325 323 323 323 321 320
305 306 307 307 307 307 308 309 310 311 312 313 314 314 314 313 312 311 308 305 303 302 300 299 301 307 313 315 316 318 318 317 319 321 322 323 324 323 322 323 323 323 320 315 320 323 323 324 322 321 322 322 324 324 326 329 330 329 329 328 328 329 329 328 328 328 328 328 328 328 328 329 328 327 328 329 329 329 330 329 327 326 327 325 324 324 323 321
305 306 307 308 307 307 308 308 309 310 311 313 314 314 314 313 312 311 309 306 305 304 302 299 300 306 312 315 316 317 317 317 318 319 320 322 323 323 321 322 323 323 321 318 320 322 322 323 321 321 321 321 322 323 325 327 329 329 328 328 328 328 329 329 328 328 328 328 328 328 328 328 327 327 328 329 329 329 328 328 328 327 327 327 325 324 324 323
305 305 306 308 308 307 307 308 309 310 310 311 313 314 313 313 312 311 309 307 306 305 303 300 300 304 311 314 315 316 317 318 318 319 320 321 322 323 322 323 324 322 321 322 322 321 321 322 322 323 323 321 322 323 324 326 327 328 328 328 328 328 329 329 328 328 328 328 328 327 328 328 327 327 327 327 328 328 328 328 328 327 327 328 327 325 324 324
305 305 305 307 308 307 307 307 308 309 310 311 313 313 313 313 312 311 310 308 306 305 303 301 300 304 311 314 314 315 317 319 319 318 319 320 321 322 323 325 325 322 321 324 324 323 323 324 325 326 326 323 322 323 323 325 327 327 327 327 328 328 328 328 328 327 328 328 328 327 329 329 327 327 327 327 328 327 328 327 328 328 328 329 328 327 326 325
304 305 305 306 307 307 307 307 308 309 309 311 312 313 313 313 312 311 310 308 306 305 303 302 301 305 311 313 313 314 315 317 318 319 320 320 321 321 323 325 325 324 323 324 325 325 325 327 328 328 326 324 323 323 324 323 325 326 326 327 328 328 327 327 328 328 328 328 327 327 328 329 328 328 328 328 327 327 327 327 328 328 328 329 328 329 328 327
304 304 305 305 306 307 307 307 308 308 308 310 311 312 313 313 312 310 310 308 306 304 303 303 302 306 312 312 312 314 315 316 316 318 320 321 321 322 323 325 325 325 324 324 325 325 326 327 328 328 327 324 323 325 324 324 324 325 326 326 326 327 326 325 327 328 328 328 327 327 328 329 328 329 329 328 327 326 327 327 328 328 328 329 329 329 329 328
304 304 304 304 305 306 306 306 307 307 308 309 311 311 312 312 312 310 310 308 306 304 304 304 304 306 312 312 311 312 313 315 314 315 318 320 322 323 323 324 324 325 325 324 324 324 325 325 326 327 327 323 323 325 326 324 324 325 325 325 326 327 326 324 325 327 328 328 327 327 328 329 328 328 329 328 327 327 327 328 328 328 328 328 329 329 328 329
304 304 304 304 304 306 306 305 306 307 307 309 310 311 312 312 311 310 309 307 306 305 304 306 305 307 311 312 313 313 312 312 313 314 316 319 321 323 324 324 324 324 324 324 323 323 324 324 324 325 326 324 322 324 326 325 324 325 325 325 324 324 325 325 325 325 326 328 327 326 326 327 328 327 328 329 328 328 328 328 328 329 329 329 329 329 328 328
304 304 303 304 304 305 306 305 306 307 308 309 310 311 312 311 311 311 309 307 307 306 306 307 308 309 311 310 312 315 314 312 312 313 315 317 319 322 324 324 324 324 324 323 323 323 323 323 322 322 324 324 323 323 324 323 323 325 326 324 322 321 322 325 325 325 326 328 328 327 326 326 326 326 327 328 329 328 328 328 328 328 328 329 329 329 329 329
303 303 303 304 304 304 306 305 305 307 308 309 310 311 311 311 312 311 309 308 308 308 307 308 309 310 311 311 311 313 315 314 313 314 316 317 317 319 322 324 324 323 323 324 323 322 322 322 322 322 322 322 323 322 322 321 321 322 324 324 324 322 321 321 324 326 327 328 328 327 327 327 327 327 326 327 328 328 328 328 328 328 328 328 328 329 328 328
303 303 303 303 304 304 305 305 305 306 307 308 310 311 311 312 311 310 309 309 308 307 306 307 307 308 312 314 313 312 315 316 315 316 317 318 318 318 320 322 324 323 323 324 323 322 321 321 322 322 321 320 321 321 321 320 320 320 321 323 324 323 322 321 322 326 327 328 328 328 328 328 327 327 326 326 327 327 327 327 327 328 328 328 328 328 328 328
304 303 303 303 304 304 305 305 305 305 307 308 310 312 312 311 310 309 309 309 308 307 307 307 306 308 313 316 314 312 315 317 316 317 316 317 319 319 320 321 323 323 323 323 322 321 322 321 321 320 320 319 319 320 320 321 321 319 319 320 322 323 324 323 322 325 327 328 329 328 328 328 328 327 326 325 326 325 325 326 326 326 327 327 327 327 327 327
305 304 303 304 304 304 304 305 305 305 306 308 309 312 312 310 309 308 308 309 309 308 307 308 308 307 311 315 315 313 315 317 317 317 317 317 319 320 320 320 322 323 323 322 322 322 323 322 321 319 319 319 319 319 320 321 322 321 320 320 321 322 323 324 324 324 325 327 328 328 327 326 326 326 325 324 324 324 325 325 325 326 326 326 326 326 326 326
305 304 304 304 304 304 304 305 305 305 306 308 309 311 311 309 308 308 308 308 309 308 308 309 311 309 309 312 315 315 316 317 317 318 318 318 320 319 320 321 321 323 323 322 323 323 324 323 320 319 319 319 319 320 320 320 321 322 322 321 321 322 323 322 323 324 324 326 327 328 327 325 324 323 322 322 322 322 323 324 324 325 325 325 325 325 325 325
305 304 304 304 304 304 304 304 305 305 306 308 309 311 311 309 308 308 308 309 309 308 308 309 311 312 311 311 313 315 316 316 316 317 318 318 319 318 319 320 320 322 323 322 323 323 323 322 320 319 318 319 320 320 321 321 321 322 323 322 322 322 322 321 322 323 322 324 325 326 327 325 324 323 322 320 320 319 320 321 321 323 323 324 324 324 324 323
305 304 304 304 304 304 304 304 305 305 306 307 308 310 311 309 308 307 308 309 309 309 308 308 310 312 312 312 312 314 316 316 315 316 317 318 318 318 319 320 320 322 322 321 322 323 322 320 320 319 319 319 320 320 321 322 322 322 323 323 322 322 322 322 322 322 323 325 325 325 328 327 324 324 323 321 319 319 319 319 320 320 321 322 323 322 322 322
305 305 304 304 304 304 305 305 305 305 306 308 308 309 310 309 307 307 308 309 309 309 308 308 309 310 312 313 312 313 315 316 314 315 317 317 317 318 318 319 320 321 321 322 322 323 321 319 319 320 320 320 321 321 321 322 322 322 322 322 322 322 324 324 324 325 325 325 324 324 328 327 324 323 323 322 321 320 320 319 319 320 319 320 321 321 321 321
305 305 305 304 304 304 305 306 305 305 306 308 308 309 310 309 307 307 309 308 309 309 308 308 308 308 310 313 312 312 314 315 314 316 318 317 317 318 318 318 320 320 320 321 322 323 321 320 320 320 320 322 322 322 321 322 323 323 323 324 322 321 323 325 326 327 325 325 325 324 325 326 325 324 324 324 323 322 322 321 321 321 321 321 322 322 322 322
305 305 305 304 304 304 305 306 305 305 306 307 308 309 309 308 306 308 309 309 309 309 308 308 308 307 310 312 312 310 312 314 315 316 318 318 317 317 318 319 319 320 320 321 324 325 322 320 321 320 320 322 322 322 322 322 323 322 323 326 323 322 323 324 325 327 325 326 327 326 324 326 325 323 324 324 323 323 322 323 323 322 323 324 324 324 324 324
305 305 305 304 304 305 305 305 305 306 306 306 307 309 309 307 306 308 309 309 309 307 308 309 308 309 311 313 312 310 311 313 314 317 318 318 318 317 318 319 318 320 321 321 324 324 323 321 320 320 321 321 321 322 322 322 322 322 324 326 324 323 324 324 327 327 326 327 326 325 325 326 324 321 323 325 324 323 323 322 322 321 322 324 325 326 327 326
305 305 305 304 305 305 305 305 305 305 306 307 307 308 308 307 307 308 308 309 308 306 308 309 308 311 312 313 313 311 311 313 315 318 318 318 318 317 318 318 318 320 321 321 321 321 322 321 321 321 321 320 320 321 322 322 322 322 323 324 325 327 326 325 326 326 327 327 326 324 324 325 324 321 321 322 323 324 324 323 322 321 320 322 323 325 327 327
305 304 304 304 305 305 305 305 305 305 306 307 308 308 307 307 307 308 308 309 308 308 310 308 308 312 313 312 313 312 311 313 316 318 318 317 318 317 317 318 318 319 320 321 321 320 321 322 322 322 321 321 321 322 322 321 322 324 325 326 327 329 329 327 325 326 327 326 324 324 324 324 324 323 322 322 322 324 325 324 324 323 322 322 322 323 324 326
304 304 305 304 304 304 305 305 304 305 306 307 308 308 307 307 307 308 309 308 308 309 310 308 308 311 312 311 312 312 312 313 315 317 317 317 317 317 317 317 318 319 320 321 321 321 321 321 322 323 322 322 322 324 325 324 324 325 327 328 326 326 327 327 325 326 326 325 323 323 324 325 323 321 322 321 322 325 324 323 324 323 322 323 323 323 323 324
304 304 304 304 303 304 304 304 304 305 306 308 308 307 307 308 308 309 310 308 308 310 310 309 309 310 311 311 311 312 312 313 315 316 316 316 317 317 317 317 317 318 319 319 320 321 322 321 322 323 323 322 322 324 325 326 326 325 325 326 324 325 326 326 325 325 325 323 323 323 324 325 323 320 321 320 320 323 323 323 323 322 323 324 325 325 325 326
303 304 304 303 303 304 304 305 305 305 306 308 307 306 307 308 309 309 308 308 308 310 310 309 309 310 311 310 311 312 312 313 315 315 315 316 316 316 316 317 317 317 318 319 319 320 321 322 322 322 323 322 322 324 324 324 325 324 323 323 322 324 325 325 324 324 324 323 323 323 324 326 324 322 323 320 318 320 322 323 323 322 322 323 324 326 327 326
303 303 304 304 304 304 304 305 305 305 307 307 305 306 308 308 308 307 307 309 310 310 310 310 310 311 311 310 310 312 312 312 314 314 315 315 316 316 316 316 317 317 318 318 319 318 318 320 321 321 321 322 322 322 322 323 325 323 322 323 322 321 322 324 325 324 324 324 323 323 323 323 321 321 322 321 320 320 320 322 322 321 322 321 322 323 324 324
302 303 303 304 304 304 304 305 305 305 306 305 305 307 308 309 308 306 307 310 311 310 310 311 310 311 311 310 311 312 312 312 313 314 314 315 315 315 316 316 317 317 318 318 318 318 318 319 321 321 321 321 322 322 322 322 324 324 324 324 322 321 322 324 324 323 323 324 324 323 323 322 320 321 320 320 322 321 320 320 319 320 321 322 322 322 322 322
301 302 304 304 304 304 304 305 305 306 306 304 305 307 307 308 308 306 307 310 311 311 311 311 311 311 311 311 310 311 312 312 313 314 314 314 315 315 315 316 316 317 317 317 317 319 319 320 322 321 322 322 320 322 322 320 323 324 324 323 322 324 325 324 324 324 323 324 324 323 323 322 322 324 322 321 322 321 321 320 319 319 320 321 322 322 322 321
301 302 304 304 304 304 304 304 305 306 305 304 306 307 307 307 307 306 307 309 312 311 310 311 311 310 311 311 311 311 311 311 313 313 313 314 315 315 315 316 316 317 317 317 318 320 320 320 322 322 322 322 320 321 322 320 321 322 322 322 322 324 325 323 323 324 325 324 324 324 324 322 322 323 322 321 321 321 321 321 320 320 320 321 322 322 322 322
301 303 304 304 304 304 304 304 305 305 304 305 307 307 306 306 307 307 307 308 311 311 310 311 311 310 311 310 310 311 311 311 312 313 312 313 314 315 314 315 316 317 317 317 318 321 321 319 321 323 322 322 322 322 323 322 321 321 321 321 320 322 325 323 322 323 325 324 324 325 324 323 321 320 320 321 321 321 322 322 322 321 320 321 322 322 323 323
302 303 304 304 304 304 304 304 305 305 304 305 307 307 305 305 306 306 306 309 311 311 311 312 311 310 311 311 311 311 311 311 313 313 312 313 314 315 315 314 315 317 317 318 318 320 320 318 319 322 321 321 323 322 322 322 322 322 322 322 320 321 323 324 323 322 324 324 324 325 324 323 321 319 320 319 319 320 321 321 322 320 319 321 321 321 322 322
302 303 304 304 304 304 304 304 305 304 304 306 307 306 305 305 307 307 306 308 311 311 311 311 311 311 311 311 311 311 311 311 312 313 312 313 313 314 315 314 315 316 317 318 318 318 319 317 318 321 321 322 323 320 318 320 322 322 322 322 322 322 322 324 324 322 321 322 324 324 324 324 321 319 319 319 320 321 319 320 321 319 318 319 319 318 319 319
302 303 304 304 304 304 304 305 304 303 304 306 306 305 304 305 308 308 306 308 311 311 311 312 312 311 311 311 311 311 311 311 312 313 312 313 313 314 315 314 314 316 316 317 318 316 317 318 318 319 320 321 319 313 312 316 321 322 321 321 322 322 321 322 324 322 321 321 322 323 323 324 322 320 320 320 320 319 318 318 318 317 317 316 316 315 316 316
303 302 304 304 303 303 305 305 304 303 304 305 305 304 304 305 307 308 308 309 311 311 312 312 312 311 311 312 311 312 312 311 311 312 312 312 312 313 314 314 314 315 316 316 316 315 315 317 317 317 318 318 315 312 311 313 316 320 321 320 321 321 320 321 321 321 322 322 321 322 322 323 321 321 319 318 317 317 316 317 316 316 317 316 315 315 315 315
302 301 303 304 303 303 305 305 304 304 304 304 304 304 305 305 306 308 309 310 310 311 312 312 312 312 312 312 312 312 312 312 312 312 312 312 312 312 313 314 315 315 315 315 316 315 315 316 316 317 318 318 316 316 315 314 315 318 319 319 319 320 320 322 321 320 321 322 322 323 323 322 321 322 319 317 318 318 316 316 317 317 317 317 316 316 315 315
301 302 303 304 304 304 304 303 303 305 304 304 305 305 305 306 307 308 309 310 310 310 311 311 311 312 312 312 312 312 312 312 312 312 312 313 313 314 314 314 314 315 314 314 314 314 315 316 316 316 317 318 318 318 317 317 316 317 318 318 318 318 320 322 322 320 322 324 323 322 323 322 320 320 319 318 319 319 316 316 316 315 315 316 316 316 316 315
302 303 302 302 304 305 303 301 302 304 305 305 305 305 305 306 307 308 309 309 309 309 310 311 311 312 313 312 313 312 312 313 313 312 312 314 315 314 314 314 314 314 314 314 313 313 315 317 316 315 315 316 316 317 319 320 318 318 318 318 318 318 318 320 320 320 322 323 323 322 322 322 321 319 319 319 318 318 317 315 315 314 314 315 315 316 316 316
303 303 301 301 303 304 302 301 302 304 305 305 305 305 305 306 307 308 309 309 308 308 308 310 311 312 312 312 312 313 313 313 313 312 312 314 314 312 311 313 315 314 313 314 314 314 315 316 316 315 315 314 314 316 318 319 319 319 318 317 317 318 318 318 318 319 321 322 322 322 321 322 322 319 321 320 317 317 317 315 314 314 314 313 314 315 316 316
303 302 300 301 303 303 303 302 302 304 305 305 305 305 305 306 306 307 308 308 308 308 308 310 311 311 312 312 312 312 313 313 313 313 313 313 313 311 310 311 313 313 313 314 313 313 314 315 315 315 315 315 315 315 316 317 317 318 318 317 316 317 317 318 317 318 319 320 320 321 321 322 321 321 323 321 317 316 317 315 315 315 314 313 313 314 315 315
302 301 300 301 302 303 303 303 303 304 305 305 305 305 305 306 305 307 308 308 308 308 309 309 310 310 312 312 312 312 312 311 311 312 313 313 312 312 311 310 310 312 313 313 312 311 313 315 314 314 315 315 315 314 314 315 315 316 317 317 317 317 317 317 317 317 317 318 318 319 320 320 320 319 320 319 316 316 316 316 315 315 314 313 313 313 314 313
302 302 301 301 302 303 303 303 303 304 304 305 305 305 305 305 305 307 308 307 308 309 308 308 309 310 310 311 311 311 311 311 312 312 312 313 312 312 312 311 311 312 312 312 311 310 312 314 313 313 314 313 313 314 314 315 314 314 315 315 316 317 317 317 316 316 316 316 316 317 317 317 316 315 316 315 315 316 316 316 316 315 314 313 312 313 313 312
303 303 301 302 303 303 304 304 304 304 304 304 305 305 305 305 306 307 307 306 307 308 307 308 310 309 310 310 310 310 311 311 312 311 311 312 312 312 311 311 312 312 311 311 311 310 311 313 313 313 313 312 312 313 313 314 314 314 314 314 314 315 316 316 316 316 316 315 316 316 315 315 314 313 314 314 314 315 315 315 315 315 314 313 312 313 312 311
303 302 302 303 304 304 304 304 304 304 304 304 305 305 305 306 306 307 307 306 306 307 307 308 310 309 309 310 310 309 310 310 311 311 310 310 311 311 311 310 310 310 310 311 312 310 310 312 313 313 313 312 312 313 314 313 313 313 313 312 313 313 313 314 314 315 315 315 316 316 315 314 314 314 315 315 314 314 314 314 315 315 314 313 312 313 311 310
Wind_Speed
30 29 29 29 31 32 30 27 26 25 24 22 19 17 16 17 22 26 28 28 26 24 22 21 19 17 17 17 18 20 19 19 18 19 22 22 19 18 18 16 14 14 13 14 14 11 9 8 9 9 9 8 8 8 7 6 6 4 2 3 3 3 4 4 3 1 3 5 5 5 7 4 6 8 4 3 4 4 3 5 6 3 5 6 5 4 2 1
31 30 30 29 29 32 32 28 27 26 25 24 22 19 17 17 19 23 27 28 27 25 23 22 20 18 16 16 17 17 18 20 20 24 25 20 19 19 18 16 14 13 12 14 14 12 9 8 10 10 11 11 9 9 7 6 7 6 3 3 4 4 5 3 3 8 7 3 7 7 3 2 6 8 6 3 6 9 6 6 9 7 7 8 8 8 5 2
32 31 31 30 29 30 32 30 28 28 27 25 24 22 19 18 17 19 23 27 28 26 24 23 21 19 17 15 15 15 16 17 23 30 25 19 21 21 18 16 15 14 13 14 14 12 10 10 10 11 13 12 11 10 8 7 7 8 6 2 4 6 5 5 6 7 7 4 5 8 2 1 6 6 5 3 5 9 8 8 11 12 13 12 9 9 9 6
33 33 32 30 29 29 31 32 31 30 28 26 24 23 21 19 17 17 19 23 27 28 25 23 22 20 18 15 13 13 12 13 21 28 23 19 23 22 19 16 15 15 14 14 15 13 12 11 11 13 13 12 13 13 9 9 7 7 7 4 6 4 4 2 3 7 6 5 4 7 3 2 5 5 4 4 4 4 6 7 8 9 13 15 12 10 9 8
33 34 33 31 31 29 29 32 33 31 29 27 25 24 22 19 18 18 17 20 24 28 27 24 22 20 18 17 14 11 7 5 8 13 17 21 25 24 20 16 16 16 14 15 16 16 14 12 12 13 13 10 11 12 10 12 10 6 7 9 11 8 5 3 6 7 5 2 2 2 1 3 6 3 4 6 4 2 4 5 5 5 4 12 12 9 8 8
33 34 34 32 32 30 28 31 34 33 31 29 26 25 23 20 19 18 18 18 21 26 28 25 22 20 19 17 15 13 11 6 2 5 8 14 20 24 21 16 17 17 16 18 17 15 14 13 12 13 13 9 10 10 10 15 12 6 7 10 12 12 9 3 8 4 2 2 4 1 1 3 3 4 6 9 8 2 5 5 2 6 7 7 8 6 7 8
32 34 34 33 32 31 29 29 32 34 33 31 28 26 24 21 19 18 17 16 18 22 26 27 22 20 19 17 17 17 20 18 7 4 5 2 6 16 22 19 19 19 18 20 18 14 14 15 14 14 12 8 10 11 12 16 15 10 6 8 13 15 14 3 6 3 0 2 4 1 1 1 4 4 4 8 10 7 4 6 5 3 1 5 6 5 5 7
32 33 34 34 33 32 30 29 30 33 33 32 29 27 25 22 20 18 17 16 16 19 23 27 24 21 19 17 18 18 26 31 18 7 5 1 5 5 17 22 22 22 21 22 20 16 15 17 18 15 10 8 10 12 15 15 13 12 8 8 13 14 12 6 3 4 2 4 2 2 4 5 7 5 2 6 9 8 6 5 7 8 5 5 7 7 6 7
33 33 33 34 34 33 31 30 30 31 32 33 32 30 26 23 21 18 17 16 16 17 20 25 24 22 19 18 17 16 27 35 27 18 13 10 7 6 10 22 25 24 24 24 21 18 18 17 20 18 10 11 13 12 16 14 8 12 12 11 13 13 9 7 6 5 5 6 4 3 6 8 9 5 4 10 14 12 9 8 8 7 6 5 7 9 9 8
34 33 33 33 34 34 32 31 31 31 31 33 34 32 26 24 22 19 18 16 16 17 18 23 25 24 21 19 16 14 22 29 29 27 23 17 9 8 7 19 27 26 25 25 22 20 21 17 17 19 14 13 14 13 16 13 8 13 14 13 16 18 14 12 12 11 9 9 8 5 6 10 10 5 4 10 13 14 13 11 9 8 8 8 8 9 10 9
34 34 33 32 33 34 33 32 32 31 30 32 34 32 27 25 24 21 19 16 16 17 17 21 24 25 22 20 19 14 16 22 25 25 26 26 13 6 6 15 25 27 24 23 22 20 20 17 14 15 13 10 11 11 16 16 13 17 15 10 15 18 17 16 14 13 10 7 10 9 8 11 10 6 7 10 8 6 9 10 10 10 10 10 9 10 11 11
33 34 34 32 32 34 34 33 33 32 31 31 33 33 29 27 25 22 20 17 16 16 17 20 23 25 22 21 28 24 15 17 21 21 23 26 19 7 4 11 20 25 23 19 19 19 18 18 16 14 9 6 8 7 10 16 16 17 14 7 9 11 13 16 13 11 10 6 9 7 6 10 10 9 11 15 15 12 9 9 11 11 10 10 10 11 12 13
33 34 34 33 33 34 34 33 33 32 32 31 32 34 31 28 26 23 20 18 17 16 17 19 22 24 20 21 29 29 20 15 15 18 21 21 19 12 7 10 15 20 22 18 15 17 18 16 17 16 12 8 6 3 3 10 13 10 9 6 6 7 8 12 12 11 11 10 11 7 3 7 8 14 20 22 26 24 20 16 14 14 12 12 12 12 14 14
34 34 34 34 33 34 34 34 33 33 32 31 32 34 33 30 27 24 21 19 17 16 17 18 21 22 20 23 24 23 23 21 16 15 17 17 18 16 12 12 13 15 17 16 12 14 15 16 16 15 15 13 7 2 1 6 10 5 5 5 5 6 6 10 13 14 11 12 16 10 5 9 5 11 19 24 30 25 22 22 20 19 17 15 15 14 15 16
35 35 36 36 35 35 34 34 33 33 33 31 32 35 33 30 28 25 22 20 17 16 17 18 21 20 16 22 23 20 19 23 26 20 15 15 17 19 18 16 15 13 13 14 13 12 14 16 16 11 11 14 10 4 3 4 5 5 6 6 6 6 5 8 13 16 12 11 19 13 4 7 6 10 14 15 23 21 18 19 19 21 19 18 18 17 17 17
35 36 38 38 36 36 35 34 34 34 34 31 32 34 33 30 28 26 23 21 18 16 17 17 22 21 10 12 18 22 22 24 29 26 20 16 15 19 21 19 17 15 14 14 13 11 12 13 12 9 8 10 7 3 3 4 4 6 7 6 6 7 5 6 9 15 16 11 15 13 5 4 4 12 15 13 18 19 17 16 17 18 18 19 19 18 18 18
35 37 38 39 38 36 35 35 34 35 34 31 31 33 33 32 29 27 23 21 17 17 18 16 20 20 12 10 11 18 28 29 28 27 25 21 16 17 20 21 18 16 15 13 12 10 9 9 7 7 8 6 4 4 4 7 8 6 6 6 6 7 6 5 5 11 17 11 9 11 9 7 5 10 14 12 15 15 14 14 15 16 18 19 20 20 20 19
36 37 38 40 39 37 36 35 35 36 34 32 31 32 33 31 29 27 24 23 19 16 15 15 17 13 12 19 20 15 22 27 27 26 25 24 20 17 18 20 19 17 16 12 12 12 10 10 8 5 5 6 6 7 8 9 8 7 7 6 6 8 8 6 4 6 12 10 9 11 10 11 10 11 15 14 12 13 15 16 17 18 19 20 21 22 21 20
38 38 38 40 39 39 36 35 36 36 35 33 32 32 32 31 29 27 26 25 22 15 11 20 26 14 2 15 27 18 14 20 24 24 22 24 24 19 16 16 18 21 17 9 10 14 12 8 8 7 7 9 10 11 11 7 6 9 9 6 6 7 8 8 5 5 10 9 9 11 11 10 10 11 14 19 19 17 18 19 19 20 20 20 21 20 21 21
39 39 39 40 40 40 37 36 36 36 37 34 33 33 29 27 18 15 24 27 31 28 19 28 40 26 4 2 21 22 13 15 19 21 23 24 23 22 19 14 15 19 15 9 9 14 14 7 7 10 11 13 13 12 11 9 9 10 8 7 8 7 7 9 7 6 10 8 8 11 11 11 11 10 11 19 22 20 20 20 20 21 21 22 22 22 23 24
40 40 40 41 41 41 38 37 37 37 38 34 35 33 25 28 16 11 27 28 35 39 22 22 37 33 3 10 16 25 17 17 19 21 24 25 23 19 18 15 10 9 11 12 11 11 12 7 10 14 13 13 14 13 11 12 13 10 8 7 8 7 6 8 8 7 10 6 6 7 10 11 11 10 11 16 16 15 18 19 21 22 22 22 24 26 27 27
42 41 40 41 42 41 39 38 38 38 38 34 37 35 29 39 28 20 30 19 25 37 22 17 28 34 16 5 17 28 19 17 18 21 25 27 24 17 16 15 8 4 9 11 10 7 8 8 13 14 12 11 12 13 12 13 12 9 8 6 6 5 4 7 8 7 8 5 4 4 8 9 9 10 12 14 14 15 20 22 23 24 23 24 25 26 27 28
43 42 41 41 42 42 39 38 37 38 39 35 40 41 38 44 29 17 25 11 12 31 28 20 19 29 28 9 14 24 18 13 14 22 27 27 26 21 16 12 9 8 9 10 9 9 9 11 14 13 12 12 11 13 13 11 10 8 7 6 6 3 3 4 5 6 7 5 4 3 6 8 8 10 11 15 19 20 24 27 28 28 27 28 29 28 28 28
44 43 42 41 42 41 39 39 37 37 40 37 42 46 43 44 27 15 22 10 4 22 33 28 17 20 27 18 13 18 17 14 13 20 28 28 26 21 16 12 11 9 8 11 12 13 11 9 14 13 12 14 12 12 12 9 8 9 8 7 6 4 5 5 2 4 7 5 2 0 6 7 8 11 11 14 20 22 25 29 30 31 32 32 32 32 32 31
44 44 43 42 42 42 39 38 39 40 40 38 43 46 42 44 32 19 18 6 1 15 26 27 18 15 20 21 18 15 13 15 15 19 27 31 26 16 12 13 11 8 9 13 11 10 9 8 17 17 13 14 13 11 12 9 6 8 9 9 8 5 6 7 3 2 3 4 2 3 5 7 6 12 13 11 14 17 21 24 26 31 32 32 32 33 33 34
43 43 44 43 42 42 38 37 41 41 39 40 44 43 42 44 34 21 13 3 2 9 15 21 18 16 19 20 21 16 7 11 16 19 24 30 28 18 11 9 7 8 10 10 6 5 6 9 15 15 13 13 12 11 12 12 7 6 8 11 11 8 7 7 4 3 2 4 2 5 5 6 4 8 9 8 9 12 14 16 22 27 28 29 31 32 33 34
42 43 43 43 43 42 40 40 41 38 39 41 42 42 42 44 36 22 10 2 3 8 12 18 17 16 20 20 24 18 3 8 15 18 23 29 29 21 12 9 7 8 9 7 5 3 6 12 12 12 13 12 11 11 12 12 8 5 6 10 12 12 11 9 5 4 3 2 3 4 5 7 8 7 7 9 11 11 11 11 14 20 25 28 29 30 31 32
42 43 42 42 43 43 43 40 36 38 43 41 42 43 39 42 37 18 6 3 4 9 11 15 16 17 21 22 27 19 5 12 13 13 24 27 25 18 9 11 11 9 10 8 6 3 6 14 14 13 13 10 11 12 11 11 9 5 3 5 10 12 12 10 6 4 3 2 5 6 4 7 11 7 6 10 13 13 12 11 11 14 21 24 27 29 29 31
42 43 42 42 42 43 43 39 35 39 42 38 40 41 37 41 32 9 3 4 3 5 9 16 17 17 22 22 25 22 12 11 7 11 25 24 22 15 5 11 12 8 10 10 7 2 1 7 12 14 11 9 11 10 10 11 9 5 2 2 3 5 8 8 5 4 3 5 8 8 6 6 11 7 5 7 10 11 10 9 11 16 21 23 24 26 27 30
41 43 43 42 42 43 43 41 40 37 35 36 39 40 39 37 21 5 6 5 2 4 8 15 16 19 24 18 16 20 16 9 6 13 22 19 20 16 5 7 9 4 7 8 8 6 1 2 2 6 8 9 10 9 13 14 8 6 4 2 3 2 2 4 4 4 3 8 11 11 11 8 10 6 5 7 8 8 7 7 10 16 22 25 24 25 28 30
40 44 43 43 44 43 42 44 44 36 34 38 39 42 37 21 7 4 7 4 2 5 9 10 12 18 22 15 11 15 14 9 8 11 13 11 14 14 6 5 4 2 4 6 7 9 6 2 0 3 5 7 8 8 11 13 8 7 5 3 1 3 2 1 1 3 6 10 9 10 12 11 12 6 2 5 6 7 7 8 8 9 15 21 24 26 27 26
37 43 43 44 44 42 43 45 44 38 35 39 44 44 26 7 4 4 5 6 4 5 9 11 13 15 18 16 12 14 13 9 9 9 9 7 7 9 7 6 6 6 6 6 6 7 7 7 5 3 2 6 8 6 4 5 7 8 6 6 5 3 1 2 4 4 7 9 4 7 11 12 13 9 6 9 4 1 4 2 2 5 11 18 22 24 24 21
31 38 41 43 42 43 44 41 40 38 34 40 46 34 13 5 6 4 4 6 4 7 12 14 17 18 19 17 12 13 13 10 11 10 9 8 6 8 9 8 8 6 5 6 6 5 4 7 9 4 1 6 8 6 4 4 8 10 8 9 9 6 4 6 6 5 6 8 3 3 6 7 8 8 11 16 11 7 8 5 5 8 10 11 13 15 15 15
28 34 38 41 43 44 41 36 37 36 37 45 37 17 7 7 6 6 5 4 3 8 12 13 16 17 16 14 11 13 11 8 11 11 8 8 6 6 8 9 10 7 3 5 6 6 7 7 10 9 6 9 9 8 8 6 8 10 9 9 9 6 5 5 6 6 7 6 4 4 4 5 6 3 5 11 15 18 18 15 14 13 11 9 8 8 9 11
26 32 36 37 41 43 39 37 37 36 43 44 20 6 10 7 4 7 6 3 4 8 11 12 16 14 11 10 9 12 10 7 11 11 7 8 6 6 7 8 11 9 5 5 4 6 9 6 9 15 13 15 13 11 9 7 5 5 5 7 9 8 6 2 1 4 3 2 3 6 5 4 3 6 5 4 9 15 17 18 19 17 16 18 20 19 17 17
25 31 34 34 38 40 38 38 36 37 44 32 7 5 9 2 3 8 7 6 7 10 15 13 12 11 9 7 8 12 11 7 10 9 6 7 6 7 7 6 11 11 7 7 3 4 7 5 7 14 11 14 18 14 12 11 6 2 4 7 5 4 3 1 1 2 3 2 3 5 6 5 5 9 9 8 6 8 13 16 19 21 23 24 25 27 26 24
27 29 32 33 35 36 38 37 34 40 43 23 4 6 4 0 5 9 8 8 7 11 15 11 9 10 9 8 8 13 12 7 9 9 5 6 6 8 9 7 12 14 11 9 4 1 5 4 6 13 10 14 21 16 11 10 7 4 6 9 3 3 2 2 1 1 2 4 3 5 9 8 5 6 6 11 12 10 10 11 14 20 22 21 22 26 27 26
27 25 26 30 33 34 38 36 36 43 35 13 5 6 3 3 6 8 10 9 8 12 11 8 8 8 10 10 10 15 15 9 10 10 7 6 5 10 12 8 12 18 17 14 6 2 2 1 3 12 12 12 16 12 5 9 10 4 3 5 5 0 1 3 3 3 4 5 4 6 9 8 7 6 3 6 12 10 9 9 10 12 15 20 24 26 23 19
25 21 20 28 33 34 35 35 39 40 20 4 6 6 3 3 4 11 16 10 9 11 9 6 7 7 10 11 10 13 14 11 11 9 8 7 5 11 17 10 9 16 19 17 7 2 1 1 3 6 7 8 10 8 6 9 10 3 2 1 2 0 2 5 4 3 4 5 5 6 6 5 7 8 5 7 8 7 8 9 9 10 16 20 18 13 8 5
25 15 11 26 33 32 35 38 37 27 8 4 7 5 4 4 5 13 19 13 8 6 6 7 8 8 10 10 9 11 11 11 11 8 6 7 6 8 14 12 9 12 16 16 10 2 2 1 4 2 4 5 6 6 8 11 10 6 3 4 3 2 0 1 2 2 1 3 4 6 6 4 3 4 6 10 10 8 10 10 9 12 14 11 7 5 5 5
26 10 7 26 33 32 38 34 20 9 3 5 5 3 7 6 3 10 17 16 8 1 2 6 8 8 9 10 10 10 9 9 9 7 4 8 8 6 12 16 12 11 14 11 9 7 3 2 4 3 4 4 3 1 1 5 9 9 7 7 7 6 3 2 3 2 1 2 3 4 7 5 2 0 2 4 5 7 10 10 8 8 10 12 11 9 7 5
21 6 9 27 34 38 38 20 5 3 3 6 5 5 8 5 3 8 14 15 8 1 1 3 6 7 7 9 10 10 9 7 9 9 6 9 11 6 12 21 17 12 12 8 8 8 4 2 2 3 3 3 0 2 4 5 1 5 5 7 8 7 5 6 6 3 3 4 3 3 6 5 1 2 3 2 4 6 4 7 10 12 15 17 14 12 10 7
16 5 13 29 35 41 32 8 2 5 0 4 8 6 9 8 4 5 9 11 6 2 2 3 5 7 5 6 9 10 10 7 9 10 8 9 10 5 12 22 19 12 9 6 7 7 4 2 3 3 2 2 2 2 4 6 4 1 1 3 6 8 9 7 4 2 3 5 4 3 6 6 2 1 2 3 7 13 15 15 17 17 16 15 14 13 11 8
13 7 18 33 38 39 24 3 5 7 2 5 7 2 6 9 7 5 7 8 5 3 3 4 5 6 4 5 8 10 10 7 7 9 6 6 7 7 14 22 18 11 8 7 8 10 6 3 4 3 3 2 1 1 1 1 1 2 2 3 4 7 7 3 1 1 2 6 8 6 6 6 2 2 2 4 7 10 12 15 17 17 14 12 10 9 7 7
11 5 17 34 42 39 18 1 5 9 6 9 8 4 6 6 8 10 8 6 4 4 3 3 5 5 4 5 7 9 10 5 5 8 6 5 5 3 10 19 17 10 9 12 14 14 7 3 6 7 6 6 6 6 5 3 3 1 1 4 5 7 7 3 1 3 5 7 10 7 6 5 2 4 2 4 7 7 9 14 17 16 14 11 9 7 6 6
7 1 7 20 31 30 13 1 5 6 8 11 8 7 8 6 6 10 8 4 2 5 4 2 5 5 4 7 7 9 10 4 3 6 7 5 3 2 2 9 15 11 8 13 19 14 3 2 6 9 9 9 7 5 3 2 4 3 5 9 10 11 12 7 2 4 3 3 7 9 8 8 5 1 2 3 6 6 6 9 13 14 14 12 10 7 7 6
4 1 2 5 11 14 6 1 3 2 6 11 7 7 11 9 6 7 7 3 2 6 4 2 4 5 5 9 8 7 9 4 3 6 8 5 3 3 5 5 7 11 8 10 15 10 2 4 8 8 10 11 9 6 2 4 4 6 9 11 11 12 13 11 9 6 3 1 6 4 3 8 10 5 3 1 4 5 4 6 8 8 9 10 9 7 5 4
2 3 3 2 2 7 6 7 7 4 7 9 6 7 11 11 10 8 5 4 5 8 4 1 5 7 7 9 6 5 9 5 2 6 7 5 3 3 3 6 3 5 5 4 6 3 1 5 7 7 9 10 9 8 5 1 1 5 8 9 9 11 13 13 13 10 6 6 7 2 3 6 11 4 1 1 1 3 4 4 6 6 4 6 7 6 4 3
4 6 5 2 1 4 10 15 14 9 8 9 5 7 10 12 13 8 3 5 7 8 7 5 7 8 8 8 5 6 9 6 4 5 5 6 5 4 3 2 3 2 3 3 2 2 2 3 3 4 5 8 9 9 8 7 6 5 6 7 7 9 11 12 13 12 11 11 11 8 8 10 11 6 4 8 8 8 11 12 11 10 7 3 6 5 4 4
5 5 7 5 4 3 8 13 14 8 7 7 5 6 9 12 13 7 3 7 8 8 9 8 8 9 9 8 6 6 7 5 6 6 5 6 5 3 3 2 2 3 3 3 2 1 2 2 2 3 2 7 9 9 8 9 9 10 10 8 6 7 8 9 10 9 9 10 11 12 11 11 12 9 9 17 19 14 15 20 19 15 8 5 6 7 7 5
6 7 13 10 3 3 7 8 9 8 6 6 5 6 9 11 13 7 3 6 7 6 8 8 7 8 8 9 9 6 5 6 8 10 10 7 7 6 4 3 6 6 3 3 3 1 1 2 2 3 2 7 8 9 9 9 10 12 12 10 9 9 8 8 9 9 10 10 10 10 10 10 12 10 9 17 22 17 17 21 23 20 11 2 3 3 8 7
8 11 17 13 4 3 5 6 7 8 7 7 7 8 9 11 12 8 4 5 6 5 8 8 6 7 6 7 8 6 5 6 8 13 16 12 9 11 10 8 11 11 6 4 3 3 3 3 2 3 3 7 8 7 7 6 6 8 10 12 13 13 13 12 11 12 13 11 9 9 10 11 12 9 9 14 18 15 15 20 23 25 21 12 7 8 11 11
Wind_Direction
259 259 257 252 250 249 244 243 245 247 250 253 251 251 246 241 238 235 237 241 242 241 238 235 235 238 239 242 243 242 245 247 250 253 252 253 252 247 247 249 250 249 242 235 234 237 241 238 235 227 222 229 234 235 237 227 225 241 214 219 252 246 247 244 230 61 91 131 126 155 171 159 136 154 180 173 179 184 150 161 184 188 203 230 232 229 258 239
258 258 257 254 251 249 245 240 243 245 246 250 252 251 248 241 237 235 236 239 241 241 240 237 234 236 237 240 244 243 245 248 251 252 248 250 255 250 247 249 249 243 232 225 222 223 232 234 230 221 218 226 223 213 218 210 206 226 234 225 234 247 280 312 37 45 44 90 120 132 190 171 124 147 167 187 195 187 186 180 181 181 199 226 230 235 251 246
257 258 257 255 252 250 247 240 241 243 243 245 249 252 252 242 235 235 235 236 238 240 241 238 236 235 235 238 243 246 248 254 258 254 247 245 251 251 247 245 244 238 225 215 211 215 231 237 232 221 219 228 218 200 205 206 199 218 232 255 240 244 305 2 58 65 49 25 99 117 140 154 122 138 160 215 219 188 196 197 188 189 199 218 222 223 235 235
254 256 256 255 253 251 248 243 239 240 241 240 243 249 253 246 235 233 233 234 235 237 239 239 237 234 234 235 238 244 249 268 267 258 252 247 249 251 247 240 235 234 223 209 202 207 229 239 239 228 220 229 222 208 203 199 192 204 214 235 250 265 322 321 86 86 71 17 42 99 128 175 129 131 158 213 249 215 209 184 176 189 202 212 212 209 219 229
252 253 253 253 252 251 248 245 239 237 239 238 238 242 248 249 239 233 231 232 232 233 236 238 237 234 233 232 234 235 231 276 276 250 247 245 243 245 245 236 226 227 219 207 201 204 214 222 235 229 220 229 225 219 210 204 206 218 234 243 255 276 307 342 70 80 75 5 346 96 162 132 125 156 188 216 245 121 90 82 98 89 146 198 203 201 207 224
251 251 250 250 251 250 247 246 241 238 236 236 236 237 241 247 242 235 231 230 230 230 233 235 235 232 231 229 229 221 208 216 136 164 214 238 240 237 236 226 217 220 211 203 201 209 215 213 226 222 216 227 226 226 213 207 212 231 249 245 254 268 280 14 78 90 71 288 263 239 82 110 135 238 214 218 230 161 56 4 347 69 91 166 196 208 211 227
249 250 249 248 249 249 246 246 243 238 234 233 234 233 235 240 241 239 233 228 228 228 230 233 233 230 227 226 227 222 220 222 209 151 152 157 253 236 227 215 208 212 205 200 199 209 216 215 223 218 213 223 224 230 224 215 218 227 241 237 242 247 249 239 94 87 170 242 275 328 47 214 247 261 211 216 231 244 303 311 289 291 114 167 201 232 236 240
248 248 248 246 246 247 246 245 245 239 234 233 234 233 230 233 237 237 233 226 224 226 228 230 231 228 223 224 225 228 232 224 211 210 208 191 355 263 220 207 200 205 203 198 198 203 208 213 218 214 216 225 222 227 229 226 221 226 230 234 249 246 237 238 130 125 203 232 273 301 275 257 250 255 227 238 245 251 266 270 271 273 262 218 216 236 249 246
247 246 247 246 244 245 245 244 244 240 236 233 233 231 226 227 231 232 231 225 221 223 227 228 228 225 220 222 224 233 240 228 214 223 245 266 314 332 226 201 193 198 201 197 196 202 207 213 214 213 224 233 230 230 231 231 218 225 225 219 252 261 229 233 237 200 204 224 221 232 253 253 249 250 243 248 254 256 250 243 246 257 264 242 222 230 242 244
248 245 245 245 243 243 242 241 242 240 236 233 231 228 222 223 226 226 226 224 223 222 225 226 225 222 219 221 222 231 240 231 224 231 246 259 284 330 262 205 194 194 198 199 197 203 210 213 213 219 239 247 241 238 234 236 229 232 230 213 233 251 233 215 229 233 223 219 220 228 245 253 245 221 228 247 253 250 238 228 227 237 246 239 228 228 237 240
247 245 243 243 242 241 239 239 240 239 236 232 230 226 222 221 222 222 221 221 223 221 222 224 221 219 219 222 225 230 234 231 230 234 243 249 258 312 269 208 197 195 196 200 201 204 210 213 215 225 238 245 247 251 244 241 243 238 232 227 231 242 246 228 213 219 228 221 218 230 252 254 242 208 218 237 245 235 220 221 223 228 230 229 231 228 236 243
246 244 241 240 241 239 237 237 238 239 237 232 227 223 220 218 219 219 216 215 219 219 219 221 219 216 218 228 230 228 225 228 233 234 242 247 246 253 215 194 200 199 196 198 203 204 206 216 229 238 241 237 233 257 259 237 242 247 233 248 249 236 248 240 220 203 214 227 212 219 256 247 236 230 229 233 243 242 227 224 221 224 229 230 229 226 234 245
246 244 241 239 239 237 236 235 236 237 236 233 227 223 218 214 215 215 212 211 213 214 213 216 216 213 217 234 236 230 222 223 229 230 237 243 239 227 178 178 204 204 198 198 205 205 206 222 238 246 255 260 229 220 296 220 223 249 239 241 255 245 239 228 224 208 212 228 206 180 242 240 225 229 229 230 238 239 233 231 230 234 240 238 235 230 231 238
245 244 242 239 239 238 235 233 233 235 234 232 228 224 217 211 211 211 209 209 208 209 209 213 212 209 222 238 239 233 228 229 227 223 228 232 230 218 183 178 199 203 203 205 211 213 215 231 241 244 250 255 257 263 294 211 206 219 239 236 227 239 235 211 209 204 210 222 202 182 234 246 234 235 236 231 230 231 233 236 237 239 243 242 239 234 231 233
246 243 242 240 238 237 235 231 231 231 231 230 226 223 217 209 208 206 206 205 203 204 204 210 208 203 230 247 242 233 228 228 228 223 222 224 222 215 197 188 193 191 199 208 211 220 225 231 237 243 248 247 258 273 224 217 207 190 216 228 213 225 241 224 212 200 200 209 199 188 234 248 238 253 256 232 218 220 229 235 235 235 237 240 239 237 234 233
246 243 241 240 237 236 235 231 230 228 228 227 224 224 217 210 206 203 203 201 196 199 200 206 207 205 231 255 241 232 226 225 226 224 224 223 214 210 205 199 197 187 188 202 205 215 228 230 233 240 248 243 238 229 200 213 215 198 212 223 207 214 228 232 227 207 198 197 196 192 221 252 221 243 240 207 201 211 218 225 227 228 231 235 237 237 236 235
245 243 240 238 235 234 233 230 229 227 226 225 223 221 214 209 206 201 198 194 191 192 198 203 203 209 234 243 226 221 223 226 225 221 222 224 211 201 203 201 200 188 180 192 199 203 214 215 216 227 238 241 218 200 205 210 209 198 207 228 224 222 225 206 222 218 199 191 194 195 222 246 253 264 248 206 193 204 215 226 227 229 233 236 239 239 237 237
243 241 239 237 235 233 231 229 227 225 225 222 221 219 212 208 206 200 191 186 182 182 197 201 190 202 239 234 223 211 217 223 222 219 218 221 219 207 200 201 202 193 180 181 191 193 194 195 195 201 217 224 212 201 209 208 201 198 199 218 229 232 239 218 211 209 187 186 201 203 221 232 234 256 258 242 217 205 216 229 232 235 240 240 239 238 237 239
242 240 237 234 233 231 230 228 226 224 221 219 218 215 209 204 202 199 189 182 177 173 193 192 185 185 235 227 217 204 207 216 215 213 211 214 219 215 203 200 198 188 178 170 180 187 183 182 193 201 204 208 209 208 215 217 210 213 209 211 216 222 236 234 233 182 169 189 212 217 232 236 229 230 237 242 237 226 225 228 230 233 236 239 242 240 238 239
240 238 235 232 231 229 228 226 224 222 218 217 213 208 199 186 185 194 188 189 190 186 193 193 190 191 63 13 204 194 185 198 202 201 204 208 207 208 208 207 198 186 177 165 166 183 184 180 198 204 204 200 205 216 220 228 238 235 226 223 218 221 228 227 236 190 172 200 214 217 238 242 240 235 228 234 236 236 236 236 237 235 233 235 240 244 244 243
236 234 232 229 228 226 226 223 221 221 218 216 209 206 195 172 164 184 185 195 203 196 196 199 197 200 185 40 178 184 171 178 192 194 202 206 196 196 203 204 207 196 183 159 143 172 187 201 211 204 204 198 200 213 219 223 236 243 242 242 227 225 228 221 229 188 169 204 222 219 242 242 241 245 239 237 235 235 235 237 241 240 237 235 237 240 243 245
232 230 229 227 226 224 224 222 220 219 216 216 209 208 202 182 180 193 183 189 212 204 206 210 204 206 209 67 159 177 173 174 190 193 198 199 191 190 191 192 211 213 182 158 133 161 192 216 216 202 201 205 202 206 216 225 232 239 240 252 246 229 231 223 226 200 176 198 216 230 262 259 252 251 245 241 239 239 238 239 240 240 239 239 238 238 239 241
228 226 225 224 224 222 222 220 219 217 214 216 208 208 208 192 184 188 181 174 208 206 214 215 204 206 211 212 166 172 176 178 186 193 194 190 187 192 184 182 213 209 182 175 159 167 196 217 209 200 201 208 210 202 206 222 229 236 231 239 246 238 257 230 215 218 213 209 187 212 264 265 263 264 258 249 246 245 243 243 244 242 240 240 241 242 241 241
223 221 222 221 221 220 220 219 218 217 216 215 210 210 209 197 184 170 177 177 189 201 213 214 205 206 207 211 194 177 182 191 187 193 193 186 184 192 192 185 205 214 195 191 184 184 207 204 186 198 208 205 212 205 202 212 220 230 228 233 239 224 243 251 248 246 238 235 190 195 279 266 249 251 254 248 246 245 242 242 244 242 241 242 243 244 244 244
218 218 219 217 219 218 217 218 219 217 215 213 212 212 207 197 186 173 179 196 193 191 206 211 217 223 202 199 204 189 188 203 202 198 195 191 185 181 196 196 196 212 203 197 197 201 215 177 170 196 209 200 208 209 206 205 209 227 221 225 239 233 239 250 274 290 266 261 193 134 269 267 224 231 241 238 236 236 234 237 240 240 240 240 241 243 243 244
214 215 216 215 217 215 213 219 220 216 211 210 212 212 209 198 186 179 185 241 246 174 183 193 203 214 196 189 189 178 186 213 209 205 199 198 192 179 185 191 191 214 199 191 208 218 211 179 178 198 199 193 206 213 210 203 206 226 204 205 227 241 252 252 245 221 221 260 213 164 228 264 234 233 246 250 248 236 226 230 236 237 238 238 239 242 243 243
212 213 214 214 215 211 210 216 217 212 209 210 208 208 206 193 183 184 191 262 229 159 156 177 185 193 192 183 175 172 184 186 193 209 202 198 195 189 193 182 183 211 190 179 214 210 185 187 191 200 196 193 201 210 208 200 209 219 179 183 204 219 234 240 238 233 234 284 276 227 238 273 270 248 239 250 259 253 235 232 232 228 228 231 234 237 240 241
210 210 212 213 213 211 210 213 212 208 211 209 201 204 203 187 181 188 193 226 196 149 146 170 178 181 178 171 173 183 189 160 174 207 200 197 194 192 211 201 191 192 178 183 211 194 176 192 194 192 199 204 203 207 200 197 219 219 158 186 199 204 218 224 224 235 256 288 260 245 237 274 271 246 209 226 241 247 241 239 241 230 225 226 229 231 236 240
209 209 211 212 213 212 212 213 211 211 213 206 197 201 196 181 179 186 215 217 180 156 152 159 167 167 161 160 174 191 201 176 170 185 186 194 196 192 217 216 207 190 180 196 214 199 156 208 200 189 197 209 204 201 186 198 223 200 119 329 247 208 204 206 208 205 230 246 238 225 196 244 273 259 208 217 228 236 236 233 240 239 236 234 229 227 232 238
210 209 210 210 212 211 211 212 213 214 210 200 198 194 181 172 174 188 217 209 118 161 156 155 161 156 155 159 176 190 200 193 160 168 176 183 192 197 203 210 215 194 185 208 224 226 230 1 245 206 213 211 202 193 187 201 207 150 129 350 340 313 204 187 196 169 201 241 235 218 195 221 267 259 208 219 222 219 218 219 231 233 233 236 233 229 233 236
212 211 210 210 211 210 207 207 210 210 203 199 195 181 170 168 178 201 198 175 106 145 144 153 161 153 156 159 169 186 196 190 161 166 173 169 184 195 188 185 196 173 198 210 223 228 218 179 25 250 242 211 192 190 194 200 183 145 146 149 111 341 358 23 202 171 213 238 231 208 197 218 245 238 205 240 212 195 208 204 213 218 213 222 230 232 236 238
212 211 211 210 211 211 207 207 207 203 200 199 186 169 161 174 218 206 167 147 158 166 153 160 163 158 161 162 166 180 188 188 171 175 183 169 178 192 191 188 173 177 207 201 195 210 216 211 191 182 244 208 193 182 182 184 169 161 151 150 166 193 187 207 213 199 223 239 225 179 189 215 242 250 262 270 273 6 294 239 183 226 208 212 225 233 238 241
211 209 210 210 211 211 211 210 205 201 199 189 177 165 161 207 192 170 147 159 188 178 165 166 167 165 164 167 173 175 181 190 176 177 187 177 186 198 202 204 186 190 208 191 194 194 207 217 197 179 207 207 201 177 167 174 171 174 165 167 182 184 184 202 210 215 230 241 245 193 206 223 247 248 231 243 253 244 251 235 213 240 225 207 215 225 230 231
210 207 209 210 211 212 210 206 203 203 193 179 170 162 186 200 163 147 165 191 188 162 162 162 160 162 167 174 176 167 178 198 179 180 184 175 189 197 201 209 200 206 210 180 194 193 209 217 189 189 182 175 193 195 181 172 175 184 177 176 186 183 191 200 201 213 227 236 212 200 238 213 207 230 200 221 230 218 211 201 208 239 253 252 246 221 205 209
211 207 207 209 211 210 207 202 201 197 182 173 166 181 192 181 140 158 174 187 167 153 157 155 151 157 172 179 175 171 181 191 177 184 188 178 193 192 192 205 198 202 205 194 193 188 221 240 179 188 180 161 181 200 174 154 182 201 170 176 199 200 197 196 169 178 192 260 200 192 239 225 225 307 310 252 230 213 210 208 216 233 243 247 248 236 226 229
212 206 206 208 207 207 204 200 201 193 178 169 167 208 185 154 149 167 171 180 180 156 146 148 153 159 167 173 176 180 186 185 173 185 195 186 201 198 190 195 193 199 201 198 201 165 209 239 164 177 183 172 184 185 168 168 175 176 180 189 208 213 182 153 350 107 112 260 225 199 247 263 276 291 272 247 234 202 210 219 222 224 223 227 234 237 238 242
211 205 205 206 204 204 201 197 195 187 177 171 200 198 167 159 174 169 175 177 175 159 147 147 165 167 164 168 180 182 182 181 174 179 188 184 199 198 192 191 187 196 206 205 230 216 201 235 159 164 181 190 185 173 168 190 181 146 194 190 135 22 36 99 243 176 149 244 232 203 232 238 237 259 236 218 219 209 206 214 220 222 219 219 229 238 244 248
208 203 203 203 202 200 196 194 190 181 175 175 197 175 163 195 173 173 186 176 158 162 159 154 164 169 168 168 180 180 176 175 174 177 183 183 196 187 185 194 189 193 202 200 220 307 200 254 176 173 181 180 173 160 162 221 218 197 192 176 139 98 202 159 204 205 186 228 240 211 224 229 223 236 241 214 214 207 203 210 218 218 211 214 226 237 245 250
199 197 204 203 199 197 194 192 184 177 174 193 188 172 181 207 186 189 193 182 164 171 173 162 155 169 177 172 175 176 175 180 176 177 185 181 195 187 180 187 190 190 195 192 200 314 79 210 232 189 175 157 160 169 179 204 212 201 49 134 145 189 195 177 200 215 192 218 240 228 219 223 229 234 255 261 235 193 188 207 216 215 210 212 219 230 240 236
186 184 208 202 196 194 191 186 180 176 174 204 191 171 167 188 208 204 200 189 173 177 186 168 150 163 174 170 169 169 175 185 177 178 192 177 186 194 180 180 184 183 185 185 188 179 75 216 232 157 123 153 178 195 196 195 192 177 160 181 176 177 236 198 209 213 194 206 228 245 242 232 224 220 233 250 245 212 201 206 208 211 206 189 159 151 168 174
179 179 197 192 189 184 179 178 178 177 169 187 196 164 168 181 202 203 204 198 186 184 212 173 156 159 165 164 169 170 174 181 176 178 192 183 191 201 182 182 182 173 175 184 193 184 150 190 207 157 137 181 200 158 222 216 191 184 191 189 184 183 177 205 214 185 179 213 210 244 258 246 212 281 261 251 262 250 228 210 191 180 154 124 116 131 145 152
174 188 173 181 184 175 172 175 175 163 178 182 174 158 167 180 201 189 193 196 194 28 2 174 157 159 163 163 166 167 167 174 182 182 191 200 202 200 180 181 180 170 166 183 195 174 130 113 191 216 189 178 151 59 23 5 141 184 202 188 182 183 183 202 212 174 166 213 227 254 265 259 242 359 6 23 26 22 50 115 110 103 104 105 106 108 108 113
174 179 162 175 180 171 167 181 178 155 155 152 148 158 174 179 202 188 176 182 180 112 158 181 159 162 172 162 158 163 166 174 190 189 190 203 205 197 175 174 175 172 162 177 189 158 105 107 178 228 199 132 26 32 42 33 55 107 226 191 182 190 196 206 209 148 157 195 204 226 248 253 268 35 57 67 62 57 63 81 93 94 95 94 94 95 92 94
163 146 155 170 178 172 167 192 172 156 97 131 135 143 185 183 194 189 169 171 169 140 158 169 161 164 168 154 154 164 167 169 195 197 191 193 196 192 179 175 174 173 170 180 176 163 166 173 171 200 202 166 207 270 250 32 127 169 197 197 202 204 201 196 98 114 194 194 194 210 237 244 283 31 92 97 84 76 76 84 88 88 87 80 76 75 63 63
145 122 147 163 173 177 177 198 163 161 153 152 148 150 162 171 191 191 169 147 157 160 153 166 162 149 150 153 149 166 174 168 183 195 194 180 174 179 181 180 180 176 180 180 162 158 181 195 174 198 212 198 199 219 231 214 167 160 157 174 197 216 211 189 120 212 217 191 190 213 240 244 327 23 66 105 99 98 95 92 83 72 67 65 64 53 32 34
143 116 134 153 169 180 190 187 166 174 161 155 154 162 163 156 182 188 167 129 146 160 141 145 143 120 146 170 155 167 183 170 122 177 189 173 149 39 88 169 182 185 178 167 156 151 174 228 188 204 222 221 220 227 229 122 133 165 185 185 192 204 211 214 211 208 205 192 207 217 231 245 260 234 162 121 96 91 80 79 73 63 58 59 64 55 31 30
141 167 103 124 161 178 192 159 167 193 168 160 155 166 169 159 157 174 169 154 179 166 139 69 143 145 170 174 162 167 174 145 91 171 177 156 111 52 47 68 166 182 164 155 160 151 118 213 201 209 225 236 247 244 197 90 125 173 188 197 198 194 199 211 224 211 145 201 237 210 190 246 248 219 166 103 67 56 31 41 49 47 52 57 63 62 49 63
121 87 93 69 146 171 182 174 165 164 172 171 161 161 165 162 163 171 167 144 165 179 171 137 182 185 174 166 157 156 164 153 146 176 167 145 112 94 72 32 44 158 133 128 166 150 117 206 203 203 228 248 257 257 261 270 158 171 183 200 205 199 198 206 222 222 199 219 243 188 122 237 245 236 139 277 356 7 335 351 360 338 354 61 68 69 78 108
115 89 100 80 34 156 166 165 162 163 176 177 167 167 171 171 172 171 131 133 165 191 189 182 191 187 175 173 163 159 173 173 173 185 162 140 137 120 115 34 9 127 121 101 144 154 160 214 196 171 230 260 253 255 264 258 255 235 207 202 194 199 206 212 225 228 219 228 239 225 214 232 238 231 238 257 267 294 300 299 304 302 304 15 61 85 112 112
135 116 132 119 42 78 131 149 159 163 174 182 184 180 181 182 179 165 130 159 171 187 192 189 185 179 179 191 192 185 184 157 139 165 156 132 145 149 136 140 135 139 125 104 126 192 198 206 146 123 243 267 253 248 245 239 248 250 239 230 210 203 209 215 227 236 232 236 241 239 240 248 249 244 251 265 268 273 280 280 280 284 298 7 60 109 137 131
158 145 149 139 82 100 127 140 159 161 171 190 193 178 184 192 184 159 128 174 171 168 183 182 167 172 185 199 203 200 178 155 152 167 171 159 153 157 160 152 140 138 149 153 142 137 193 179 99 102 238 256 246 238 234 229 237 244 243 237 226 222 221 214 216 220 222 225 231 239 243 248 254 248 240 256 260 254 253 259 264 266 261 284 44 141 173 181
162 153 156 148 106 132 147 140 159 168 177 189 187 182 186 188 179 158 129 175 182 163 176 181 160 158 181 203 203 184 132 131 151 168 181 187 173 166 177 171 148 146 163 163 133 133 156 157 130 144 215 260 252 227 217 219 231 240 235 225 222 224 225 227 227 221 218 217 218 229 233 237 249 247 230 243 247 239 237 243 246 249 249 255 269 234 207 198